[[{"header":{"parameterUnit":"m.s-1","parameterCategory":1,"la1":30.2991,"la2":30.254,"lo1":-89.0895,"lo2":-89.0444,"dy":0.0017,"dx":0.0017,"nx":28,"ny":28,"refTime":"2024-05-19T21:00:00:Z","depth":0,"parameterNumber":2,"parameterNumberName":"U-component_of_WINDS"},"data":[0,0,0,0,0,0,0,0,0,0,0,0,0,0,0,0,0,0,0,0,0,0,0,0,0,0,0,0,0,0,0,0,0,0,0,0,0,0,0,0,0,0,0,0,0,0,0,0,0,0,0,0,0,0,0,0,0,0,-2.6075,-2.6075,0,-2.6084,-2.6084,-2.6085,-2.6026,-2.6024,-2.6023,-2.6021,-2.603,-2.6031,-2.6033,0,0,0,0,0,0,0,0,0,0,0,0,0,-2.6007,-2.6009,-2.6075,-2.6075,-2.6076,-2.6084,-2.6084,-2.6085,-2.6026,-2.6024,-2.6022,-2.6021,-2.6029,-2.6031,-2.6033,0,0,0,0,0,0,0,0,0,0,0,0,0,-2.6029,-2.6009,-2.6075,-2.6048,-2.6045,-2.6084,-2.6085,-2.6085,-2.6027,-2.6024,-2.6022,-2.602,-2.6028,-2.6031,-2.6034,-2.61,0,0,-2.6042,-2.6043,0,0,0,0,0,0,0,0,-2.6027,-2.6031,-2.6052,-2.605,-2.6047,-2.6052,-2.6063,-2.609,-2.6027,-2.6034,-2.6021,-2.6018,-2.6039,-2.6041,-2.6048,-2.61,-2.61,-2.6042,-2.6044,-2.6045,-2.6045,0,0,0,0,0,0,0,-2.6026,-2.603,-2.6079,-2.6052,-2.6049,-2.6035,-2.6035,-2.6068,-2.605,-2.6033,-2.6029,-2.6031,-2.6037,-2.6045,-2.6047,-2.61,-2.6042,-2.6044,-2.6046,-2.6047,-2.6207,-2.621,0,0,0,0,0,0,-2.6028,-2.603,-2.6078,-2.6079,-2.6031,-2.6038,-2.6038,-2.6053,-2.605,-2.6047,-2.6033,-2.6028,-2.6042,-2.6044,-2.6048,-2.6124,-2.6045,-2.6047,-2.6049,-2.6205,-2.6208,-2.6211,0,0,0,0,0,0,-2.6027,-2.6033,-2.6078,-2.6053,-2.6058,-2.6042,-2.6058,-2.6054,-2.6062,-2.6049,-2.6046,-2.6044,-2.604,-2.6044,-2.6087,-2.6124,-2.6048,-2.6051,-2.6202,-2.6206,-2.621,-2.6278,0,0,0,0,0,0,-2.6025,-2.6033,-2.6058,-2.6054,-2.6059,-2.6118,-2.6061,-2.6056,-2.6067,-2.6061,-2.6059,-2.6057,-2.6038,-2.6084,-2.609,-2.6126,-2.6053,-2.6198,-2.6204,-2.6208,-2.6273,-2.6284,-2.6294,0,0,0,0,0,-2.6023,-2.6077,-2.6059,-2.6066,-2.609,-2.612,-2.6123,-2.6101,-2.607,-2.6095,-2.6087,-2.6057,-2.6119,-2.6088,-2.6095,-2.6133,-2.6196,-2.6202,-2.6208,-2.6268,-2.6282,-2.6294,0,0,0,0,0,0,-2.6084,-2.6076,-2.6056,-2.611,-2.6117,-2.611,-2.614,-2.6117,-2.6131,-2.6125,-2.6097,-2.6097,-2.6145,-2.6143,-2.6109,-2.6196,-2.6152,-2.616,-2.6195,-2.6209,-2.6219,-2.6218,-2.6055,0,0,0,0,0,-2.6104,-2.613,-2.6121,-2.6169,-2.6173,-2.6157,-2.6169,-2.6152,-2.6157,-2.6159,-2.6154,-2.616,-2.6181,-2.6195,-2.6213,-2.6273,-2.6272,-2.6302,-2.6313,-2.6322,-2.6328,-2.6359,-2.6373,-2.6231,-2.6231,-2.6231,0,0,-2.6145,-2.6144,-2.6161,-2.6181,-2.6184,-2.6211,-2.6159,-2.6189,-2.6209,-2.6163,-2.6204,-2.6201,-2.6205,-2.6257,-2.628,-2.6257,-2.6367,-2.6329,-2.6336,-2.6338,-2.6367,-2.638,-2.6392,-2.6235,-2.6234,-2.6233,0,0,-2.6234,-2.6235,-2.6276,-2.628,-2.6285,-2.6274,-2.6284,-2.6282,-2.6278,-2.6318,-2.6285,-2.6308,-2.6344,-2.6349,-2.6356,-2.6448,-2.6421,-2.6455,-2.651,-2.6541,-2.6552,-2.6562,-2.6594,-2.6606,-2.6462,-2.6462,-2.6462,0,-2.6284,-2.6323,-2.63,-2.6332,-2.6342,-2.6303,-2.6344,-2.6349,-2.636,-2.6368,-2.6343,-2.6388,-2.6388,-2.6441,-2.6463,-2.6471,-2.6481,-2.6454,-2.6553,-2.6562,-2.6571,-2.6601,-2.6614,-2.6466,-2.6466,-2.6465,-2.6465,0,-2.6384,-2.6412,-2.6444,-2.6456,-2.647,-2.6506,-2.6489,-2.6505,-2.6488,-2.6479,-2.6521,-2.6521,-2.6539,-2.655,-2.6533,-2.66,-2.6586,-2.6558,-2.6512,-2.6589,-2.6617,-2.6629,-2.6472,-2.6471,-2.6469,-2.6468,0,0,-2.6509,-2.6509,-2.6521,-2.6526,-2.653,-2.6551,-2.6586,-2.6604,-2.6619,-2.6628,-2.6656,-2.6689,-2.6663,-2.6671,-2.6654,-2.6682,-2.6754,-2.665,-2.6649,-2.6668,-2.6828,-2.6849,-2.6863,-2.6737,-2.6739,-2.6741,-2.6827,0,-2.6595,-2.6655,-2.6636,-2.6696,-2.6722,-2.6686,-2.6717,-2.6722,-2.6716,-2.6736,-2.6729,-2.6752,-2.6716,-2.6721,-2.6747,-2.674,-2.6786,-2.6734,-2.6762,-2.6764,-2.6761,-2.6877,-2.6899,-2.6981,-2.6838,-2.684,-2.6842,0,-2.6702,-2.6716,-2.678,-2.6779,-2.6789,-2.6817,-2.6832,-2.6853,-2.6858,-2.6852,-2.6862,-2.684,-2.6874,-2.6831,-2.6878,-2.6843,-2.6854,-2.6852,-2.6855,-2.6855,-2.6806,-2.688,-2.7006,-2.7018,-2.6859,-2.6857,-2.6856,0,-2.6786,-2.6821,-2.6864,-2.6869,-2.687,-2.6891,-2.6892,-2.6896,-2.6908,-2.6921,-2.6929,-2.6946,-2.6956,-2.697,-2.6953,-2.6923,-2.7002,-2.6957,-2.6997,-2.6998,-2.7014,-2.7013,-2.7143,-2.7024,-2.7024,-2.7024,-2.7023,0,-2.6883,-2.6923,-2.6901,-2.6927,-2.6971,-2.6949,-2.6993,-2.6991,-2.6994,-2.7019,-2.699,-2.7014,-2.6991,-2.7012,-2.7,-2.704,-2.7045,-2.704,-2.7036,-2.7042,-2.7043,-2.7048,-2.7041,-2.7027,-2.7026,-2.7025,-2.7025,0,-2.6983,-2.697,-2.7014,-2.7012,-2.7013,-2.7045,-2.7043,-2.7067,-2.7059,-2.7091,-2.7097,-2.7085,-2.7109,-2.7095,-2.7119,-2.7111,-2.7163,-2.7152,-2.7162,-2.7158,-2.7199,-2.7195,-2.7335,-2.7352,-2.7224,-2.7225,-2.7226,0,-2.7045,-2.7075,-2.7076,-2.7091,-2.7095,-2.7119,-2.7131,-2.7112,-2.7126,-2.7136,-2.7158,-2.718,-2.7197,-2.7237,-2.723,-2.7249,-2.7237,-2.7285,-2.724,-2.7245,-2.7237,-2.7235,-2.7237,-2.7294,-2.7295,-2.7297,-2.7298,0,-2.7155,-2.7148,-2.7167,-2.7185,-2.7201,-2.7214,-2.7225,-2.7239,-2.7219,-2.7237,-2.7262,-2.7274,-2.73,-2.7322,-2.7338,-2.7339,-2.7315,-2.7313,-2.7323,-2.7328,-2.7332,-2.733,-2.7185,-2.7309,-2.7308,-2.7307,-2.7306,-2.7306,-2.7237,-2.7262,-2.7268,-2.7291,-2.7297,-2.7308,-2.733,-2.7326,-2.7346,-2.7365,-2.7353,-2.7382,-2.7388,-2.7407,-2.7412,-2.7434,-2.7415,-2.743,-2.7433,-2.7437,-2.7442,-2.733,-2.7437,-2.7437,-2.7437,-2.7436,-2.7436,0,-2.7346,-2.7348,-2.7369,-2.7385,-2.7403,-2.7381,-2.7391,-2.7408,-2.7434,-2.7442,-2.7459,-2.7488,-2.7509,-2.7505,-2.7524,-2.7543,-2.7533,-2.7549,-2.7546,-2.7547,-2.7459,-2.7448,-2.7557,-2.7557,-2.7557,-2.7557,-2.7557,-2.7557,-2.7404,-2.7445,-2.7439,-2.7483,-2.7484,-2.7513,-2.7521,-2.7531,-2.7537,-2.7571,-2.7589,-2.7586,-2.7589,-2.7609,-2.7628,-2.7626,-2.7634,-2.7654,-2.7648,-2.7565,-2.7553,-2.7542,-2.7531,-2.7656,-2.7656,-2.7734,-2.7735,-2.7735]},{"header":{"parameterUnit":"m.s-1","parameterCategory":1,"la1":30.2991,"la2":30.254,"lo1":-89.0895,"lo2":-89.0444,"dy":0.0017,"dx":0.0017,"nx":28,"ny":28,"refTime":"2024-05-19T21:00:00:Z","depth":0,"parameterNumber":3,"parameterNumberName":"V-component_of_WINDS"},"data":[0,0,0,0,0,0,0,0,0,0,0,0,0,0,0,0,0,0,0,0,0,0,0,0,0,0,0,0,0,0,0,0,0,0,0,0,0,0,0,0,0,0,0,0,0,0,0,0,0,0,0,0,0,0,0,0,0,0,0.6096,0.6096,0,0.6062,0.6062,0.6061,0.6027,0.6027,0.6026,0.6026,0.599,0.5989,0.5989,0,0,0,0,0,0,0,0,0,0,0,0,0,0.6132,0.6131,0.6096,0.6096,0.6095,0.6062,0.6062,0.6061,0.6027,0.6027,0.6026,0.6026,0.599,0.5989,0.5989,0,0,0,0,0,0,0,0,0,0,0,0,0,0.6109,0.6131,0.6096,0.6074,0.6072,0.6062,0.6062,0.6061,0.6027,0.6027,0.6026,0.6025,0.599,0.5989,0.5989,0.5997,0,0,0.5986,0.5986,0,0,0,0,0,0,0,0,0.611,0.6107,0.6078,0.6076,0.6073,0.6048,0.6061,0.604,0.6027,0.6044,0.6026,0.6025,0.601,0.6007,0.6002,0.5996,0.5994,0.5986,0.5986,0.5985,0.5985,0,0,0,0,0,0,0,0.6112,0.6109,0.6082,0.6078,0.6075,0.6066,0.6062,0.6057,0.6031,0.6043,0.604,0.6037,0.6008,0.6003,0.6001,0.5993,0.5986,0.5985,0.5985,0.5985,0.5994,0.5994,0,0,0,0,0,0,0.6117,0.611,0.6084,0.6081,0.609,0.6066,0.6062,0.6057,0.6031,0.6027,0.6037,0.6035,0.6005,0.6002,0.6,0.6009,0.5985,0.5985,0.5984,0.5993,0.5994,0.5995,0,0,0,0,0,0,0.6118,0.6115,0.6085,0.6095,0.6091,0.6066,0.6061,0.6056,0.6051,0.6027,0.6022,0.6037,0.6004,0.6001,0.5999,0.6007,0.5984,0.5983,0.5992,0.5993,0.5994,0.6027,0,0,0,0,0,0,0.6119,0.6115,0.6118,0.6096,0.609,0.6084,0.6062,0.6056,0.605,0.6047,0.6025,0.6021,0.6003,0.6,0.5998,0.6006,0.5983,0.5991,0.5993,0.5994,0.6025,0.6029,0.6033,0,0,0,0,0,0.612,0.6128,0.6118,0.6115,0.6093,0.6085,0.6082,0.6062,0.6051,0.6054,0.6039,0.6022,0.6007,0.6,0.5997,0.6005,0.599,0.5992,0.5994,0.6024,0.6029,0.6033,0,0,0,0,0,0,0.6151,0.6125,0.6113,0.6114,0.6102,0.6079,0.6082,0.6068,0.6058,0.6055,0.6031,0.6026,0.6027,0.6015,0.6008,0.6013,0.5996,0.5998,0.602,0.6025,0.6028,0.6031,0.5982,0,0,0,0,0,0.6159,0.6154,0.6131,0.6134,0.6128,0.6107,0.6102,0.6088,0.6074,0.6068,0.6053,0.604,0.6032,0.6028,0.6019,0.6024,0.6019,0.6028,0.6032,0.6035,0.6036,0.6039,0.6043,0.6,0.6,0.6,0,0,0.6173,0.6158,0.6156,0.614,0.6129,0.6125,0.6102,0.6098,0.6095,0.6068,0.6065,0.6053,0.6037,0.6038,0.6038,0.6029,0.6047,0.6037,0.604,0.6039,0.6041,0.6045,0.6049,0.6001,0.6001,0.6001,0,0,0.6197,0.6185,0.6187,0.6177,0.6161,0.6146,0.6147,0.6126,0.6118,0.6115,0.6094,0.609,0.6077,0.6067,0.606,0.6083,0.6067,0.6081,0.6101,0.6104,0.6107,0.611,0.6119,0.6122,0.6082,0.6082,0.6082,0,0.6217,0.621,0.619,0.6188,0.6182,0.6157,0.6159,0.615,0.6132,0.6128,0.6119,0.6104,0.6091,0.609,0.6096,0.6091,0.6091,0.6083,0.6108,0.6111,0.6113,0.6121,0.6125,0.6084,0.6084,0.6084,0.6084,0,0.6236,0.6232,0.6235,0.622,0.6214,0.6214,0.6193,0.619,0.6177,0.6164,0.6161,0.6146,0.6134,0.6133,0.612,0.6131,0.6126,0.6113,0.6096,0.612,0.6127,0.613,0.6087,0.6086,0.6086,0.6085,0,0,0.6278,0.6252,0.6254,0.6247,0.6228,0.6224,0.6224,0.6214,0.6212,0.62,0.6199,0.619,0.6178,0.6171,0.6156,0.6158,0.6179,0.6145,0.6144,0.6152,0.6191,0.6202,0.6206,0.6168,0.6169,0.6169,0.6193,0,0.63,0.6298,0.628,0.6283,0.6279,0.6257,0.6256,0.6245,0.6233,0.6228,0.6215,0.6209,0.6193,0.6189,0.619,0.6176,0.6186,0.6174,0.6168,0.6168,0.6173,0.6209,0.622,0.6243,0.6195,0.6196,0.6196,0,0.6324,0.6316,0.6319,0.6301,0.6299,0.6299,0.6289,0.6284,0.6271,0.6263,0.6255,0.6239,0.6238,0.6222,0.622,0.6212,0.6209,0.6202,0.6202,0.6201,0.6184,0.6209,0.6249,0.6253,0.62,0.62,0.62,0,0.6356,0.6345,0.6345,0.634,0.6319,0.632,0.6312,0.6298,0.6293,0.6285,0.6281,0.6272,0.6267,0.6261,0.6243,0.6233,0.6244,0.6226,0.6237,0.6237,0.624,0.624,0.628,0.6237,0.6237,0.6237,0.6237,0,0.6382,0.6384,0.6359,0.636,0.6363,0.6342,0.6346,0.6335,0.6323,0.6322,0.6302,0.63,0.6277,0.6273,0.6259,0.626,0.6258,0.6251,0.6248,0.6253,0.6254,0.6251,0.6249,0.6238,0.6238,0.6238,0.6238,0,0.6417,0.64,0.64,0.6381,0.6376,0.6379,0.6363,0.6363,0.635,0.6348,0.6347,0.6327,0.6322,0.6303,0.6293,0.6284,0.629,0.6282,0.6294,0.6292,0.6304,0.6303,0.6343,0.6348,0.6302,0.6302,0.6303,0,0.6435,0.6437,0.6418,0.6416,0.6409,0.6405,0.6401,0.6381,0.6377,0.6364,0.6366,0.6359,0.6352,0.6345,0.633,0.6322,0.6315,0.633,0.6314,0.632,0.6316,0.6316,0.6317,0.6333,0.6334,0.6334,0.6335,0,0.6468,0.646,0.6455,0.6447,0.6443,0.6436,0.6427,0.6427,0.6405,0.6402,0.6397,0.6392,0.6382,0.6376,0.6367,0.6358,0.6343,0.634,0.6342,0.6348,0.6355,0.6352,0.6304,0.6339,0.6339,0.6338,0.6338,0.6338,0.6496,0.6497,0.6485,0.648,0.6472,0.6465,0.6464,0.6452,0.6448,0.6439,0.6428,0.6424,0.6412,0.6398,0.6391,0.6388,0.6379,0.6382,0.6383,0.6384,0.6387,0.6356,0.6386,0.6386,0.6385,0.6385,0.6385,0,0.6529,0.652,0.6516,0.6506,0.6502,0.6489,0.648,0.6478,0.6475,0.6465,0.646,0.6455,0.6449,0.6434,0.6427,0.6428,0.6421,0.6427,0.6426,0.6425,0.6395,0.6394,0.6432,0.6432,0.6432,0.6432,0.6432,0.6432,0.6546,0.6547,0.6538,0.6536,0.6527,0.6524,0.652,0.6514,0.6506,0.6502,0.6497,0.6488,0.6476,0.6468,0.6463,0.6459,0.6457,0.6465,0.6459,0.6431,0.6427,0.6422,0.6422,0.6465,0.6465,0.6489,0.649,0.649]}]]